Time,TemperatureF,DewpointF,PressureIn,WindDirection,WindDirectionDegrees,WindSpeedMPH,WindSpeedGustMPH,Humidity,HourlyPrecipIn,Conditions,Clouds,dailyrainin,SoftwareType,DateUTC
2013-01-27 00:04:00,49.9,45.3,30.01,East,100,10.0,15.0,84,0.00,,---,0.00,VWS V14.01,2013-01-27 06:04:00,
2013-01-27 00:09:00,50.1,45.5,30.01,ESE,105,9.0,16.0,84,0.00,,---,0.00,VWS V14.01,2013-01-27 06:09:00,
2013-01-27 00:15:00,50.3,46.0,30.00,ESE,108,14.0,17.0,85,0.00,,---,0.00,VWS V14.01,2013-01-27 06:15:00,
2013-01-27 00:20:00,50.7,46.0,30.00,ESE,111,6.0,17.0,84,0.00,,---,0.00,VWS V14.01,2013-01-27 06:20:00,
2013-01-27 00:25:00,51.0,46.7,30.00,East,96,6.0,17.0,85,0.00,,---,0.00,VWS V14.01,2013-01-27 06:25:00,
2013-01-27 00:30:00,51.2,46.8,30.00,East,96,5.0,17.0,85,0.00,,---,0.00,VWS V14.01,2013-01-27 06:30:00,
2013-01-27 00:35:00,51.4,47.0,30.00,ESE,120,7.0,9.0,85,0.00,,---,0.00,VWS V14.01,2013-01-27 06:35:00,
2013-01-27 00:40:00,51.5,47.5,30.00,East,98,4.0,9.0,86,0.00,,---,0.00,VWS V14.01,2013-01-27 06:40:00,
2013-01-27 00:45:00,51.6,47.6,30.01,East,93,6.0,12.0,86,0.00,,---,0.00,VWS V14.01,2013-01-27 06:45:00,
2013-01-27 00:50:00,51.7,47.7,30.01,East,98,5.0,12.0,86,0.00,,---,0.00,VWS V14.01,2013-01-27 06:50:00,
2013-01-27 00:56:00,51.6,47.6,30.00,ESE,103,9.0,13.0,86,0.00,,---,0.00,VWS V14.01,2013-01-27 06:56:00,
2013-01-27 01:01:00,51.6,47.6,30.00,East,96,9.0,9.0,86,0.00,,---,0.00,VWS V14.01,2013-01-27 07:01:00,
2013-01-27 01:06:00,51.6,47.6,30.00,ENE,75,9.0,14.0,86,0.00,,---,0.00,VWS V14.01,2013-01-27 07:06:00,
2013-01-27 01:13:00,51.6,47.9,29.99,East,96,9.0,14.0,87,0.00,,---,0.00,VWS V14.01,2013-01-27 07:13:00,
2013-01-27 01:18:00,51.6,47.9,29.99,East,94,7.0,15.0,87,0.00,,---,0.00,VWS V14.01,2013-01-27 07:18:00,
2013-01-27 01:23:00,51.6,47.9,29.99,ESE,110,8.0,15.0,87,0.00,,---,0.00,VWS V14.01,2013-01-27 07:23:00,
2013-01-27 01:28:00,51.6,47.9,29.99,ESE,105,10.0,15.0,87,0.00,,---,0.00,VWS V14.01,2013-01-27 07:28:00,
2013-01-27 01:33:00,51.6,48.2,29.99,ENE,74,8.0,11.0,88,0.00,,---,0.00,VWS V14.01,2013-01-27 07:33:00,
2013-01-27 01:39:00,51.7,48.3,29.98,ESE,122,10.0,14.0,88,0.00,,---,0.00,VWS V14.01,2013-01-27 07:39:00,
2013-01-27 01:44:00,51.9,48.5,29.98,East,100,10.0,18.0,88,0.00,,---,0.00,VWS V14.01,2013-01-27 07:44:00,
2013-01-27 01:49:00,52.0,48.9,29.98,ESE,122,11.0,18.0,89,0.00,,---,0.00,VWS V14.01,2013-01-27 07:49:00,
2013-01-27 01:54:00,52.0,48.9,29.98,East,96,13.0,18.0,89,0.00,,---,0.00,VWS V14.01,2013-01-27 07:54:00,
2013-01-27 01:59:00,52.2,49.1,29.98,East,83,10.0,18.0,89,0.00,,---,0.00,VWS V14.01,2013-01-27 07:59:00,
2013-01-27 02:04:00,52.4,49.3,29.99,East,89,7.0,15.0,89,0.00,,---,0.00,VWS V14.01,2013-01-27 08:04:00,
2013-01-27 02:09:00,52.5,49.4,29.99,East,95,8.0,15.0,89,0.00,,---,0.00,VWS V14.01,2013-01-27 08:09:00,
2013-01-27 02:14:00,52.6,49.5,29.99,East,96,10.0,15.0,89,0.00,,---,0.00,VWS V14.01,2013-01-27 08:14:00,
2013-01-27 02:20:00,52.6,49.5,29.99,ESE,103,9.0,15.0,89,0.00,,---,0.00,VWS V14.01,2013-01-27 08:20:00,
2013-01-27 02:25:00,52.9,50.0,29.99,East,91,3.0,15.0,90,0.00,,---,0.00,VWS V14.01,2013-01-27 08:25:00,
2013-01-27 02:30:00,52.8,50.0,29.99,ESE,105,5.0,15.0,90,0.00,,---,0.00,VWS V14.01,2013-01-27 08:30:00,
2013-01-27 02:35:00,52.8,50.0,29.99,ESE,122,7.0,13.0,90,0.00,,---,0.00,VWS V14.01,2013-01-27 08:35:00,
2013-01-27 02:40:00,52.9,50.0,30.00,SE,128,10.0,13.0,90,0.00,,---,0.00,VWS V14.01,2013-01-27 08:40:00,
2013-01-27 02:45:00,53.2,50.7,30.00,ESE,110,9.0,13.0,91,0.00,,---,0.00,VWS V14.01,2013-01-27 08:45:00,
2013-01-27 02:50:00,53.4,50.8,29.99,SE,125,9.0,15.0,91,0.00,,---,0.00,VWS V14.01,2013-01-27 08:50:00,
2013-01-27 02:55:00,53.6,51.0,29.99,East,93,8.0,15.0,91,0.00,,---,0.00,VWS V14.01,2013-01-27 08:55:00,
2013-01-27 03:00:00,53.6,51.0,29.99,SE,125,8.0,15.0,91,0.00,,---,0.00,VWS V14.01,2013-01-27 09:00:00,
2013-01-27 03:06:00,53.7,51.1,29.99,ESE,107,7.0,14.0,91,0.00,,---,0.00,VWS V14.01,2013-01-27 09:06:00,
2013-01-27 03:11:00,53.7,51.1,29.99,SE,136,11.0,14.0,91,0.00,,---,0.00,VWS V14.01,2013-01-27 09:11:00,
2013-01-27 03:16:00,53.7,51.1,29.99,SE,124,12.0,14.0,91,0.00,,---,0.00,VWS V14.01,2013-01-27 09:16:00,
2013-01-27 03:21:00,53.7,51.1,29.98,ESE,122,11.0,16.0,91,0.00,,---,0.00,VWS V14.01,2013-01-27 09:21:00,
2013-01-27 03:26:00,53.7,51.1,29.98,SE,134,6.0,16.0,91,0.00,,---,0.00,VWS V14.01,2013-01-27 09:26:00,
2013-01-27 03:31:00,53.7,51.1,29.98,ESE,111,10.0,10.0,91,0.00,,---,0.00,VWS V14.01,2013-01-27 09:31:00,
2013-01-27 03:36:00,53.7,51.1,29.98,ENE,77,8.0,12.0,91,0.00,,---,0.00,VWS V14.01,2013-01-27 09:36:00,
2013-01-27 03:41:00,53.7,51.1,29.97,SE,129,5.0,12.0,91,0.00,,---,0.00,VWS V14.01,2013-01-27 09:41:00,
2013-01-27 03:47:00,53.7,51.1,29.97,ESE,107,8.0,12.0,91,0.00,,---,0.00,VWS V14.01,2013-01-27 09:47:00,
2013-01-27 03:52:00,53.8,51.2,29.97,ESE,121,7.0,14.0,91,0.00,,---,0.00,VWS V14.01,2013-01-27 09:52:00,
2013-01-27 03:57:00,53.8,51.2,29.97,ESE,118,7.0,14.0,91,0.00,,---,0.00,VWS V14.01,2013-01-27 09:57:00,
2013-01-27 04:02:00,53.9,51.3,29.97,East,91,11.0,12.0,91,0.00,,---,0.00,VWS V14.01,2013-01-27 10:02:00,
2013-01-27 04:07:00,53.9,51.3,29.96,East,93,7.0,13.0,91,0.00,,---,0.00,VWS V14.01,2013-01-27 10:07:00,
2013-01-27 04:12:00,53.9,51.3,29.96,East,101,9.0,14.0,91,0.00,,---,0.00,VWS V14.01,2013-01-27 10:12:00,
2013-01-27 04:17:00,53.8,51.2,29.96,East,101,8.0,14.0,91,0.00,,---,0.00,VWS V14.01,2013-01-27 10:17:00,
2013-01-27 04:22:00,53.9,51.6,29.95,SE,129,7.0,14.0,92,0.00,,---,0.00,VWS V14.01,2013-01-27 10:22:00,
2013-01-27 04:28:00,53.9,51.6,29.95,SE,141,8.0,17.0,92,0.00,,---,0.00,VWS V14.01,2013-01-27 10:28:00,
2013-01-27 04:33:00,53.9,51.6,29.95,East,79,12.0,12.0,92,0.00,,---,0.00,VWS V14.01,2013-01-27 10:33:00,
2013-01-27 04:38:00,53.9,51.6,29.95,ESE,111,8.0,14.0,92,0.00,,---,0.00,VWS V14.01,2013-01-27 10:38:00,
2013-01-27 04:43:00,53.9,51.6,29.95,ESE,105,11.0,14.0,92,0.00,,---,0.00,VWS V14.01,2013-01-27 10:43:00,
2013-01-27 04:48:00,53.9,51.6,29.95,ESE,122,8.0,14.0,92,0.00,,---,0.00,VWS V14.01,2013-01-27 10:48:00,
2013-01-27 04:53:00,53.9,51.6,29.95,ESE,113,11.0,15.0,92,0.00,,---,0.00,VWS V14.01,2013-01-27 10:53:00,
2013-01-27 04:58:00,53.9,51.6,29.95,East,100,11.0,15.0,92,0.00,,---,0.00,VWS V14.01,2013-01-27 10:58:00,
2013-01-27 05:03:00,53.9,51.6,29.95,SE,124,7.0,12.0,92,0.00,,---,0.00,VWS V14.01,2013-01-27 11:03:00,
2013-01-27 05:09:00,53.9,51.6,29.95,SE,128,8.0,12.0,92,0.00,,---,0.00,VWS V14.01,2013-01-27 11:09:00,
2013-01-27 05:14:00,53.9,51.6,29.95,SE,124,8.0,15.0,92,0.00,,---,0.00,VWS V14.01,2013-01-27 11:14:00,
2013-01-27 05:19:00,53.9,51.6,29.94,SE,138,11.0,15.0,92,0.00,,---,0.00,VWS V14.01,2013-01-27 11:19:00,
2013-01-27 05:24:00,53.9,51.6,29.94,ESE,120,8.0,15.0,92,0.00,,---,0.00,VWS V14.01,2013-01-27 11:24:00,
2013-01-27 05:29:00,53.9,51.6,29.94,ESE,123,8.0,15.0,92,0.00,,---,0.00,VWS V14.01,2013-01-27 11:29:00,
2013-01-27 05:34:00,54.1,51.8,29.93,SE,134,13.0,17.0,92,0.00,,---,0.00,VWS V14.01,2013-01-27 11:34:00,
2013-01-27 05:39:00,54.1,51.8,29.93,ESE,117,12.0,17.0,92,0.00,,---,0.00,VWS V14.01,2013-01-27 11:39:00,
2013-01-27 05:44:00,54.0,51.7,29.93,SE,133,10.0,17.0,92,0.00,,---,0.00,VWS V14.01,2013-01-27 11:44:00,
2013-01-27 05:50:00,54.1,51.8,29.93,SE,132,12.0,17.0,92,0.00,,---,0.00,VWS V14.01,2013-01-27 11:50:00,
2013-01-27 05:55:00,54.2,51.6,29.93,ESE,105,13.0,17.0,91,0.00,,---,0.00,VWS V14.01,2013-01-27 11:55:00,
2013-01-27 06:00:00,54.1,51.5,29.93,SE,134,13.0,18.0,91,0.00,,---,0.00,VWS V14.01,2013-01-27 12:00:00,
2013-01-27 06:05:00,54.1,51.5,29.93,East,100,9.0,18.0,91,0.00,,---,0.00,VWS V14.01,2013-01-27 12:05:00,
2013-01-27 06:10:00,54.0,51.4,29.92,ESE,120,11.0,18.0,91,0.00,,---,0.00,VWS V14.01,2013-01-27 12:10:00,
2013-01-27 06:15:00,54.0,51.7,29.92,SE,129,13.0,18.0,92,0.00,,---,0.00,VWS V14.01,2013-01-27 12:15:00,
2013-01-27 06:20:00,54.1,51.5,29.92,SE,131,15.0,21.0,91,0.00,,---,0.00,VWS V14.01,2013-01-27 12:20:00,
2013-01-27 06:25:00,54.2,51.9,29.92,ESE,117,16.0,22.0,92,0.00,,---,0.00,VWS V14.01,2013-01-27 12:25:00,
2013-01-27 06:30:00,54.2,51.6,29.92,SE,139,17.0,23.0,91,0.00,,---,0.00,VWS V14.01,2013-01-27 12:30:00,
2013-01-27 06:35:00,54.2,51.6,29.92,SSE,148,16.0,24.0,91,0.00,,---,0.00,VWS V14.01,2013-01-27 12:35:00,
2013-01-27 06:41:00,54.2,51.6,29.92,ESE,120,12.0,24.0,91,0.00,,---,0.00,VWS V14.01,2013-01-27 12:41:00,
2013-01-27 06:46:00,54.1,51.5,29.92,SE,134,11.0,24.0,91,0.00,,---,0.00,VWS V14.01,2013-01-27 12:46:00,
2013-01-27 06:51:00,54.1,51.5,29.92,SE,125,11.0,24.0,91,0.00,,---,0.00,VWS V14.01,2013-01-27 12:51:00,
2013-01-27 06:56:00,54.0,51.4,29.92,ESE,117,8.0,24.0,91,0.00,,---,0.00,VWS V14.01,2013-01-27 12:56:00,
2013-01-27 07:01:00,53.9,51.6,29.92,ESE,113,9.0,11.0,92,0.00,,---,0.00,VWS V14.01,2013-01-27 13:01:00,
2013-01-27 07:06:00,53.9,51.6,29.92,ESE,122,12.0,18.0,92,0.00,,---,0.00,VWS V14.01,2013-01-27 13:06:00,
2013-01-27 07:11:00,53.8,51.5,29.92,ESE,117,11.0,18.0,92,0.00,,---,0.00,VWS V14.01,2013-01-27 13:11:00,
2013-01-27 07:16:00,53.9,51.6,29.92,SE,133,12.0,22.0,92,0.00,,---,0.00,VWS V14.01,2013-01-27 13:16:00,
2013-01-27 07:22:00,54.0,51.7,29.92,SE,129,11.0,22.0,92,0.00,,---,0.00,VWS V14.01,2013-01-27 13:22:00,
2013-01-27 07:27:00,54.1,51.8,29.92,SE,134,16.0,22.0,92,0.00,,---,0.00,VWS V14.01,2013-01-27 13:27:00,
2013-01-27 07:32:00,53.9,51.6,29.91,ESE,120,15.0,20.0,92,0.00,,---,0.00,VWS V14.01,2013-01-27 13:32:00,
2013-01-27 07:37:00,53.8,51.5,29.91,SE,138,13.0,20.0,92,0.00,,---,0.00,VWS V14.01,2013-01-27 13:37:00,
2013-01-27 07:42:00,53.7,51.4,29.91,SE,124,12.0,20.0,92,0.00,,---,0.00,VWS V14.01,2013-01-27 13:42:00,
2013-01-27 07:47:00,53.8,51.5,29.92,SE,134,18.0,20.0,92,0.00,,---,0.00,VWS V14.01,2013-01-27 13:47:00,
2013-01-27 07:52:00,53.8,51.5,29.91,SE,127,10.0,20.0,92,0.00,,---,0.00,VWS V14.01,2013-01-27 13:52:00,
2013-01-27 07:58:00,53.8,51.5,29.91,ESE,110,14.0,20.0,92,0.00,,---,0.00,VWS V14.01,2013-01-27 13:58:00,
2013-01-27 08:03:00,53.7,51.4,29.91,SE,141,12.0,19.0,92,0.00,,---,0.00,VWS V14.01,2013-01-27 14:03:00,
2013-01-27 08:08:00,53.8,51.5,29.91,SE,139,12.0,19.0,92,0.00,,---,0.00,VWS V14.01,2013-01-27 14:08:00,
2013-01-27 08:13:00,53.9,51.6,29.91,SE,136,15.0,21.0,92,0.00,,---,0.00,VWS V14.01,2013-01-27 14:13:00,
2013-01-27 08:18:00,54.1,51.8,29.91,ESE,121,17.0,21.0,92,0.00,,---,0.00,VWS V14.01,2013-01-27 14:18:00,
2013-01-27 08:23:00,54.3,52.0,29.90,ESE,120,15.0,21.0,92,0.00,,---,0.00,VWS V14.01,2013-01-27 14:23:00,
2013-01-27 08:29:00,54.5,52.2,29.90,ESE,110,12.0,21.0,92,0.00,,---,0.00,VWS V14.01,2013-01-27 14:29:00,
2013-01-27 08:34:00,54.8,52.5,29.90,ESE,120,13.0,20.0,92,0.00,,---,0.00,VWS V14.01,2013-01-27 14:34:00,
2013-01-27 08:39:00,54.9,52.3,29.90,ESE,114,14.0,20.0,91,0.00,,---,0.00,VWS V14.01,2013-01-27 14:39:00,
2013-01-27 08:44:00,55.0,52.4,29.90,SSE,153,9.0,20.0,91,0.00,,---,0.00,VWS V14.01,2013-01-27 14:44:00,
2013-01-27 08:49:00,55.1,52.5,29.91,SSE,149,10.0,20.0,91,0.00,,---,0.00,VWS V14.01,2013-01-27 14:49:00,
2013-01-27 08:55:00,55.3,52.7,29.91,ESE,120,12.0,20.0,91,0.00,,---,0.00,VWS V14.01,2013-01-27 14:55:00,
2013-01-27 09:00:00,55.6,53.0,29.91,SE,134,12.0,20.0,91,0.00,,---,0.00,VWS V14.01,2013-01-27 15:00:00,
2013-01-27 09:05:00,55.8,53.2,29.90,SE,139,11.0,18.0,91,0.00,,---,0.00,VWS V14.01,2013-01-27 15:05:00,
2013-01-27 09:10:00,56.1,53.5,29.90,SSE,158,12.0,21.0,91,0.00,,---,0.00,VWS V14.01,2013-01-27 15:10:00,
2013-01-27 09:15:00,56.4,53.8,29.90,ESE,120,12.0,21.0,91,0.00,,---,0.00,VWS V14.01,2013-01-27 15:15:00,
2013-01-27 09:20:00,56.6,53.7,29.90,SSE,160,12.0,21.0,90,0.00,,---,0.00,VWS V14.01,2013-01-27 15:20:00,
2013-01-27 09:26:00,56.8,53.9,29.90,SE,127,13.0,21.0,90,0.00,,---,0.00,VWS V14.01,2013-01-27 15:26:00,
2013-01-27 09:31:00,56.9,54.0,29.90,SSE,162,12.0,16.0,90,0.00,,---,0.00,VWS V14.01,2013-01-27 15:31:00,
2013-01-27 09:36:00,56.9,54.0,29.90,SE,134,11.0,20.0,90,0.00,,---,0.00,VWS V14.01,2013-01-27 15:36:00,
2013-01-27 09:41:00,57.1,54.2,29.90,SSE,157,10.0,20.0,90,0.00,,---,0.00,VWS V14.01,2013-01-27 15:41:00,
2013-01-27 09:46:00,57.3,54.4,29.90,SSE,156,15.0,20.0,90,0.00,,---,0.00,VWS V14.01,2013-01-27 15:46:00,
2013-01-27 09:51:00,57.6,54.4,29.90,SE,142,16.0,20.0,89,0.00,,---,0.00,VWS V14.01,2013-01-27 15:51:00,
2013-01-27 09:57:00,58.2,55.0,29.90,SE,146,15.0,20.0,89,0.00,,---,0.00,VWS V14.01,2013-01-27 15:57:00,
2013-01-27 10:02:00,58.8,55.3,29.90,SSE,163,10.0,15.0,88,0.00,,---,0.00,VWS V14.01,2013-01-27 16:02:00,
2013-01-27 10:07:00,59.3,55.4,29.90,SE,131,13.0,22.0,87,0.00,,---,0.00,VWS V14.01,2013-01-27 16:07:00,
2013-01-27 10:12:00,60.0,56.1,29.89,SE,143,11.0,22.0,87,0.00,,---,0.00,VWS V14.01,2013-01-27 16:12:00,
2013-01-27 10:17:00,60.3,56.1,29.89,SE,138,11.0,22.0,86,0.00,,---,0.00,VWS V14.01,2013-01-27 16:17:00,
2013-01-27 10:22:00,60.5,56.0,29.89,SSE,153,15.0,22.0,85,0.00,,---,0.00,VWS V14.01,2013-01-27 16:22:00,
2013-01-27 10:27:00,61.1,56.2,29.89,SE,139,12.0,22.0,84,0.00,,---,0.00,VWS V14.01,2013-01-27 16:27:00,
2013-01-27 10:32:00,62.1,56.9,29.90,SSE,162,17.0,23.0,83,0.00,,---,0.00,VWS V14.01,2013-01-27 16:32:00,
2013-01-27 10:37:00,62.5,56.6,29.89,SE,139,12.0,25.0,81,0.00,,---,0.00,VWS V14.01,2013-01-27 16:37:00,
2013-01-27 10:43:00,62.3,56.4,29.89,SE,143,16.0,25.0,81,0.00,,---,0.00,VWS V14.01,2013-01-27 16:43:00,
2013-01-27 10:48:00,62.8,56.5,29.89,SE,135,17.0,26.0,80,0.00,,---,0.00,VWS V14.01,2013-01-27 16:48:00,
2013-01-27 10:53:00,63.4,56.8,29.89,South,175,17.0,26.0,79,0.00,,---,0.00,VWS V14.01,2013-01-27 16:53:00,
2013-01-27 10:58:00,64.0,57.0,29.89,South,172,11.0,26.0,78,0.00,,---,0.00,VWS V14.01,2013-01-27 16:58:00,
2013-01-27 11:03:00,64.9,57.2,29.89,SSE,162,12.0,19.0,76,0.00,,---,0.00,VWS V14.01,2013-01-27 17:03:00,
2013-01-27 11:08:00,66.1,57.6,29.89,SSE,158,15.0,19.0,74,0.00,,---,0.00,VWS V14.01,2013-01-27 17:08:00,
2013-01-27 11:13:00,67.2,57.1,29.89,SSE,156,13.0,21.0,70,0.00,,---,0.00,VWS V14.01,2013-01-27 17:13:00,
2013-01-27 11:18:00,67.9,57.0,29.89,South,174,13.0,22.0,68,0.00,,---,0.00,VWS V14.01,2013-01-27 17:18:00,
2013-01-27 11:24:00,67.9,56.5,29.89,South,172,19.0,22.0,67,0.00,,---,0.00,VWS V14.01,2013-01-27 17:24:00,
2013-01-27 11:29:00,68.0,56.2,29.89,SSE,154,15.0,22.0,66,0.00,,---,0.00,VWS V14.01,2013-01-27 17:29:00,
2013-01-27 11:34:00,68.1,55.9,29.88,South,191,15.0,21.0,65,0.00,,---,0.00,VWS V14.01,2013-01-27 17:34:00,
2013-01-27 11:39:00,67.9,55.7,29.88,SSE,162,19.0,22.0,65,0.00,,---,0.00,VWS V14.01,2013-01-27 17:39:00,
2013-01-27 11:44:00,67.7,56.0,29.88,South,173,15.0,22.0,66,0.00,,---,0.00,VWS V14.01,2013-01-27 17:44:00,
2013-01-27 11:49:00,67.6,55.8,29.87,SE,139,14.0,22.0,66,0.00,,---,0.00,VWS V14.01,2013-01-27 17:49:00,
2013-01-27 11:54:00,67.6,55.8,29.87,South,177,17.0,22.0,66,0.00,,---,0.00,VWS V14.01,2013-01-27 17:54:00,
2013-01-27 11:59:00,68.2,56.4,29.86,South,173,14.0,22.0,66,0.00,,---,0.00,VWS V14.01,2013-01-27 17:59:00,
2013-01-27 12:05:00,69.7,56.6,29.86,South,183,14.0,20.0,63,0.00,,---,0.00,VWS V14.01,2013-01-27 18:05:00,
2013-01-27 12:10:00,70.6,56.5,29.86,SSE,166,17.0,21.0,61,0.00,,---,0.00,VWS V14.01,2013-01-27 18:10:00,
2013-01-27 12:15:00,71.0,56.4,29.86,SSW,205,15.0,23.0,60,0.00,,---,0.00,VWS V14.01,2013-01-27 18:15:00,
2013-01-27 12:20:00,70.7,56.2,29.86,SSE,166,13.0,23.0,60,0.00,,---,0.00,VWS V14.01,2013-01-27 18:20:00,
2013-01-27 12:25:00,70.9,55.9,29.85,SSE,156,16.0,25.0,59,0.00,,---,0.00,VWS V14.01,2013-01-27 18:25:00,
2013-01-27 12:30:00,70.6,55.6,29.85,SSW,210,9.0,25.0,59,0.00,,---,0.00,VWS V14.01,2013-01-27 18:30:00,
2013-01-27 12:35:00,71.1,55.6,29.84,SW,226,13.0,28.0,58,0.00,,---,0.00,VWS V14.01,2013-01-27 18:35:00,
2013-01-27 12:40:00,71.2,55.7,29.84,SSE,150,13.0,28.0,58,0.00,,---,0.00,VWS V14.01,2013-01-27 18:40:00,
2013-01-27 12:46:00,71.3,55.8,29.83,SSW,198,8.0,28.0,58,0.00,,---,0.00,VWS V14.01,2013-01-27 18:46:00,
2013-01-27 12:51:00,71.1,55.6,29.83,SW,227,18.0,28.0,58,0.00,,---,0.00,VWS V14.01,2013-01-27 18:51:00,
2013-01-27 12:56:00,71.3,55.3,29.82,South,169,10.0,28.0,57,0.00,,---,0.00,VWS V14.01,2013-01-27 18:56:00,
2013-01-27 13:01:00,71.5,55.5,29.82,South,188,12.0,13.0,57,0.00,,---,0.00,VWS V14.01,2013-01-27 19:01:00,
2013-01-27 13:06:00,72.1,55.6,29.82,SE,133,8.0,20.0,56,0.00,,---,0.00,VWS V14.01,2013-01-27 19:06:00,
2013-01-27 13:11:00,72.4,55.3,29.81,South,169,10.0,20.0,55,0.00,,---,0.00,VWS V14.01,2013-01-27 19:11:00,
2013-01-27 13:16:00,72.6,55.5,29.81,SSE,159,11.0,20.0,55,0.00,,---,0.00,VWS V14.01,2013-01-27 19:16:00,
2013-01-27 13:21:00,72.7,55.6,29.80,South,174,10.0,20.0,55,0.00,,---,0.00,VWS V14.01,2013-01-27 19:21:00,
2013-01-27 13:27:00,73.1,55.5,29.80,South,184,12.0,20.0,54,0.00,,---,0.00,VWS V14.01,2013-01-27 19:27:00,
2013-01-27 13:32:00,73.9,55.7,29.80,SW,228,15.0,16.0,53,0.00,,---,0.00,VWS V14.01,2013-01-27 19:32:00,
2013-01-27 13:37:00,74.3,55.6,29.80,SSE,152,9.0,20.0,52,0.00,,---,0.00,VWS V14.01,2013-01-27 19:37:00,
2013-01-27 13:42:00,74.0,55.3,29.80,SSE,156,17.0,20.0,52,0.00,,---,0.00,VWS V14.01,2013-01-27 19:42:00,
2013-01-27 13:47:00,74.6,55.3,29.80,SSE,155,12.0,20.0,51,0.00,,---,0.00,VWS V14.01,2013-01-27 19:47:00,
2013-01-27 13:52:00,75.1,55.8,29.79,SSW,200,14.0,20.0,51,0.00,,---,0.00,VWS V14.01,2013-01-27 19:52:00,
2013-01-27 13:57:00,74.9,55.6,29.79,SSE,166,11.0,21.0,51,0.00,,---,0.00,VWS V14.01,2013-01-27 19:57:00,
2013-01-27 14:02:00,74.9,55.6,29.79,SE,139,16.0,18.0,51,0.00,,---,0.00,VWS V14.01,2013-01-27 20:02:00,
2013-01-27 14:08:00,75.2,55.3,29.78,SE,143,14.0,18.0,50,0.00,,---,0.00,VWS V14.01,2013-01-27 20:08:00,
2013-01-27 14:13:00,75.1,55.2,29.78,SSE,147,19.0,20.0,50,0.00,,---,0.00,VWS V14.01,2013-01-27 20:13:00,
2013-01-27 14:18:00,75.0,55.1,29.78,South,186,18.0,21.0,50,0.00,,---,0.00,VWS V14.01,2013-01-27 20:18:00,
2013-01-27 14:23:00,75.0,55.1,29.78,SSE,152,17.0,22.0,50,0.00,,---,0.00,VWS V14.01,2013-01-27 20:23:00,
2013-01-27 14:28:00,75.2,55.3,29.78,South,181,13.0,22.0,50,0.00,,---,0.00,VWS V14.01,2013-01-27 20:28:00,
2013-01-27 14:33:00,75.7,54.6,29.77,South,177,14.0,21.0,48,0.00,,---,0.00,VWS V14.01,2013-01-27 20:33:00,
2013-01-27 14:38:00,75.8,54.7,29.77,SSE,148,17.0,21.0,48,0.00,,---,0.00,VWS V14.01,2013-01-27 20:38:00,
2013-01-27 14:44:00,75.9,54.8,29.77,SSE,158,11.0,22.0,48,0.00,,---,0.00,VWS V14.01,2013-01-27 20:44:00,
2013-01-27 14:49:00,76.1,55.0,29.77,SSE,165,16.0,22.0,48,0.00,,---,0.00,VWS V14.01,2013-01-27 20:49:00,
2013-01-27 14:54:00,76.1,55.0,29.76,SSE,152,11.0,27.0,48,0.00,,---,0.00,VWS V14.01,2013-01-27 20:54:00,
2013-01-27 14:59:00,76.1,55.0,29.76,South,170,13.0,27.0,48,0.00,,---,0.00,VWS V14.01,2013-01-27 20:59:00,
2013-01-27 15:04:00,76.2,55.1,29.76,SSW,211,13.0,20.0,48,0.00,,---,0.00,VWS V14.01,2013-01-27 21:04:00,
2013-01-27 15:09:00,76.6,54.3,29.76,South,186,7.0,25.0,46,0.00,,---,0.00,VWS V14.01,2013-01-27 21:09:00,
2013-01-27 15:14:00,76.8,55.1,29.76,SSE,150,17.0,25.0,47,0.00,,---,0.00,VWS V14.01,2013-01-27 21:14:00,
2013-01-27 15:19:00,77.0,54.7,29.76,SSE,159,13.0,25.0,46,0.00,,---,0.00,VWS V14.01,2013-01-27 21:19:00,
2013-01-27 15:25:00,77.2,54.2,29.75,SE,139,17.0,25.0,45,0.00,,---,0.00,VWS V14.01,2013-01-27 21:25:00,
2013-01-27 15:30:00,77.5,53.9,29.75,SSE,155,14.0,26.0,44,0.00,,---,0.00,VWS V14.01,2013-01-27 21:30:00,
2013-01-27 15:35:00,77.7,54.1,29.75,SE,143,16.0,19.0,44,0.00,,---,0.00,VWS V14.01,2013-01-27 21:35:00,
2013-01-27 15:40:00,77.8,54.2,29.75,SE,128,18.0,25.0,44,0.00,,---,0.00,VWS V14.01,2013-01-27 21:40:00,
2013-01-27 15:45:00,78.0,53.7,29.75,SE,146,18.0,25.0,43,0.00,,---,0.00,VWS V14.01,2013-01-27 21:45:00,
2013-01-27 15:50:00,77.9,54.3,29.75,South,173,13.0,25.0,44,0.00,,---,0.00,VWS V14.01,2013-01-27 21:50:00,
2013-01-27 15:56:00,77.9,53.6,29.74,South,186,17.0,25.0,43,0.00,,---,0.00,VWS V14.01,2013-01-27 21:56:00,
2013-01-27 16:01:00,78.0,53.7,29.74,SE,142,17.0,25.0,43,0.00,,---,0.00,VWS V14.01,2013-01-27 22:01:00,
2013-01-27 16:06:00,78.0,53.7,29.74,SSE,167,18.0,25.0,43,0.00,,---,0.00,VWS V14.01,2013-01-27 22:06:00,
2013-01-27 16:11:00,78.1,53.8,29.74,South,190,12.0,25.0,43,0.00,,---,0.00,VWS V14.01,2013-01-27 22:11:00,
2013-01-27 16:16:00,78.3,54.0,29.74,SE,139,10.0,25.0,43,0.00,,---,0.00,VWS V14.01,2013-01-27 22:16:00,
2013-01-27 16:21:00,78.2,53.9,29.74,SSE,165,10.0,25.0,43,0.00,,---,0.00,VWS V14.01,2013-01-27 22:21:00,
2013-01-27 16:26:00,78.1,53.8,29.74,SSE,156,13.0,25.0,43,0.00,,---,0.00,VWS V14.01,2013-01-27 22:26:00,
2013-01-27 16:32:00,78.1,53.8,29.74,South,170,12.0,22.0,43,0.00,,---,0.00,VWS V14.01,2013-01-27 22:32:00,
2013-01-27 16:37:00,77.9,53.6,29.74,SSE,158,13.0,24.0,43,0.00,,---,0.00,VWS V14.01,2013-01-27 22:37:00,
2013-01-27 16:42:00,77.9,53.6,29.74,SSE,159,16.0,24.0,43,0.00,,---,0.00,VWS V14.01,2013-01-27 22:42:00,
2013-01-27 16:47:00,77.6,54.0,29.74,SSE,155,14.0,24.0,44,0.00,,---,0.00,VWS V14.01,2013-01-27 22:47:00,
2013-01-27 16:52:00,77.3,53.7,29.74,SE,133,19.0,24.0,44,0.00,,---,0.00,VWS V14.01,2013-01-27 22:52:00,
2013-01-27 16:57:00,77.2,53.6,29.74,SSE,156,13.0,24.0,44,0.00,,---,0.00,VWS V14.01,2013-01-27 22:57:00,
2013-01-27 17:03:00,77.1,54.2,29.74,SE,133,11.0,17.0,45,0.00,,---,0.00,VWS V14.01,2013-01-27 23:03:00,
2013-01-27 17:08:00,76.7,53.8,29.74,SE,142,20.0,22.0,45,0.00,,---,0.00,VWS V14.01,2013-01-27 23:08:00,
2013-01-27 17:13:00,76.2,53.3,29.74,SE,143,16.0,24.0,45,0.00,,---,0.00,VWS V14.01,2013-01-27 23:13:00,
2013-01-27 17:18:00,75.9,53.7,29.74,ESE,122,14.0,24.0,46,0.00,,---,0.00,VWS V14.01,2013-01-27 23:18:00,
2013-01-27 17:23:00,75.6,53.4,29.74,SSE,155,10.0,24.0,46,0.00,,---,0.00,VWS V14.01,2013-01-27 23:23:00,
2013-01-27 17:28:00,75.3,53.7,29.74,SE,139,14.0,24.0,47,0.00,,---,0.00,VWS V14.01,2013-01-27 23:28:00,
2013-01-27 17:33:00,74.9,53.3,29.74,SE,146,11.0,20.0,47,0.00,,---,0.00,VWS V14.01,2013-01-27 23:33:00,
2013-01-27 17:39:00,74.6,53.1,29.74,SSE,150,15.0,21.0,47,0.00,,---,0.00,VWS V14.01,2013-01-27 23:39:00,
2013-01-27 17:44:00,74.4,52.9,29.74,SSE,149,14.0,21.0,47,0.00,,---,0.00,VWS V14.01,2013-01-27 23:44:00,
2013-01-27 17:49:00,74.0,53.1,29.74,SSE,163,16.0,21.0,48,0.00,,---,0.00,VWS V14.01,2013-01-27 23:49:00,
2013-01-27 17:54:00,73.7,52.8,29.74,South,180,13.0,21.0,48,0.00,,---,0.00,VWS V14.01,2013-01-27 23:54:00,
2013-01-27 17:59:00,73.4,53.1,29.74,SSE,156,18.0,21.0,49,0.00,,---,0.00,VWS V14.01,2013-01-27 23:59:00,
2013-01-27 18:04:00,73.1,52.8,29.75,SSE,166,12.0,18.0,49,0.00,,---,0.00,VWS V14.01,2013-01-28 00:04:00,
2013-01-27 18:09:00,72.7,52.5,29.75,SSE,150,12.0,18.0,49,0.00,,---,0.00,VWS V14.01,2013-01-28 00:09:00,
2013-01-27 18:15:00,72.0,52.4,29.75,SE,136,8.0,18.0,50,0.00,,---,0.00,VWS V14.01,2013-01-28 00:15:00,
2013-01-27 18:20:00,71.7,52.6,29.75,SE,141,11.0,18.0,51,0.00,,---,0.00,VWS V14.01,2013-01-28 00:20:00,
2013-01-27 18:25:00,71.5,52.4,29.75,SSE,156,14.0,18.0,51,0.00,,---,0.00,VWS V14.01,2013-01-28 00:25:00,
2013-01-27 18:30:00,71.1,53.1,29.75,ESE,122,11.0,18.0,53,0.00,,---,0.00,VWS V14.01,2013-01-28 00:30:00,
2013-01-27 18:35:00,70.9,54.0,29.75,SE,139,13.0,17.0,55,0.00,,---,0.00,VWS V14.01,2013-01-28 00:35:00,
2013-01-27 18:40:00,70.6,54.6,29.76,SSE,151,10.0,17.0,57,0.00,,---,0.00,VWS V14.01,2013-01-28 00:40:00,
2013-01-27 18:45:00,70.4,55.4,29.76,SE,136,12.0,18.0,59,0.00,,---,0.00,VWS V14.01,2013-01-28 00:45:00,
2013-01-27 18:50:00,70.3,55.3,29.76,SSE,155,14.0,18.0,59,0.00,,---,0.00,VWS V14.01,2013-01-28 00:50:00,
2013-01-27 18:56:00,70.2,55.7,29.76,SE,124,12.0,18.0,60,0.00,,---,0.00,VWS V14.01,2013-01-28 00:56:00,
2013-01-27 19:01:00,70.1,55.6,29.76,SE,138,14.0,14.0,60,0.00,,---,0.00,VWS V14.01,2013-01-28 01:01:00,
2013-01-27 19:06:00,69.9,55.4,29.76,SE,143,11.0,18.0,60,0.00,,---,0.00,VWS V14.01,2013-01-28 01:06:00,
2013-01-27 19:11:00,69.7,55.7,29.77,SE,146,14.0,18.0,61,0.00,,---,0.00,VWS V14.01,2013-01-28 01:11:00,
2013-01-27 19:16:00,69.5,55.5,29.77,SSE,151,14.0,21.0,61,0.00,,---,0.00,VWS V14.01,2013-01-28 01:16:00,
2013-01-27 19:21:00,69.5,55.5,29.77,SE,138,16.0,21.0,61,0.00,,---,0.00,VWS V14.01,2013-01-28 01:21:00,
2013-01-27 19:26:00,69.2,55.2,29.77,SSE,153,15.0,21.0,61,0.00,,---,0.00,VWS V14.01,2013-01-28 01:26:00,
2013-01-27 19:32:00,69.1,55.5,29.77,SSE,155,14.0,19.0,62,0.00,,---,0.00,VWS V14.01,2013-01-28 01:32:00,
2013-01-27 19:37:00,69.1,55.1,29.78,SE,141,16.0,20.0,61,0.00,,---,0.00,VWS V14.01,2013-01-28 01:37:00,
2013-01-27 19:42:00,69.0,55.0,29.78,SE,142,14.0,20.0,61,0.00,,---,0.00,VWS V14.01,2013-01-28 01:42:00,
2013-01-27 19:47:00,68.9,55.4,29.78,SE,146,14.0,22.0,62,0.00,,---,0.00,VWS V14.01,2013-01-28 01:47:00,
2013-01-27 19:52:00,68.8,55.3,29.78,SE,136,13.0,22.0,62,0.00,,---,0.00,VWS V14.01,2013-01-28 01:52:00,
2013-01-27 19:57:00,68.6,55.1,29.78,SSE,152,16.0,22.0,62,0.00,,---,0.00,VWS V14.01,2013-01-28 01:57:00,
2013-01-27 20:03:00,68.4,55.3,29.78,SSE,165,8.0,18.0,63,0.00,,---,0.00,VWS V14.01,2013-01-28 02:03:00,
2013-01-27 20:08:00,68.1,55.0,29.79,South,177,12.0,19.0,63,0.00,,---,0.00,VWS V14.01,2013-01-28 02:08:00,
2013-01-27 20:13:00,67.8,55.2,29.79,South,174,11.0,19.0,64,0.00,,---,0.00,VWS V14.01,2013-01-28 02:13:00,
2013-01-27 20:18:00,67.7,55.1,29.79,SSE,153,15.0,19.0,64,0.00,,---,0.00,VWS V14.01,2013-01-28 02:18:00,
2013-01-27 20:23:00,67.9,55.3,29.79,SSE,150,12.0,19.0,64,0.00,,---,0.00,VWS V14.01,2013-01-28 02:23:00,
2013-01-27 20:28:00,67.7,55.1,29.79,SSE,155,10.0,19.0,64,0.00,,---,0.00,VWS V14.01,2013-01-28 02:28:00,
2013-01-27 20:33:00,68.0,55.0,29.79,South,184,18.0,18.0,63,0.00,,---,0.00,VWS V14.01,2013-01-28 02:33:00,
2013-01-27 20:38:00,68.1,55.0,29.79,SSE,167,11.0,18.0,63,0.00,,---,0.00,VWS V14.01,2013-01-28 02:38:00,
2013-01-27 20:44:00,68.1,55.0,29.79,SE,138,8.0,18.0,63,0.00,,---,0.00,VWS V14.01,2013-01-28 02:44:00,
2013-01-27 20:49:00,68.0,55.0,29.79,SSE,155,16.0,18.0,63,0.00,,---,0.00,VWS V14.01,2013-01-28 02:49:00,
2013-01-27 20:54:00,68.1,55.0,29.79,SSE,155,12.0,18.0,63,0.00,,---,0.00,VWS V14.01,2013-01-28 02:54:00,
2013-01-27 20:59:00,68.5,55.4,29.80,SSE,165,9.0,18.0,63,0.00,,---,0.00,VWS V14.01,2013-01-28 02:59:00,
2013-01-27 21:04:00,68.5,55.0,29.80,SSW,194,11.0,14.0,62,0.00,,---,0.00,VWS V14.01,2013-01-28 03:04:00,
2013-01-27 21:09:00,68.3,55.2,29.80,South,184,11.0,14.0,63,0.00,,---,0.00,VWS V14.01,2013-01-28 03:09:00,
2013-01-27 21:15:00,68.2,55.1,29.80,South,179,12.0,14.0,63,0.00,,---,0.00,VWS V14.01,2013-01-28 03:15:00,
2013-01-27 21:20:00,67.9,54.8,29.80,South,184,11.0,15.0,63,0.00,,---,0.00,VWS V14.01,2013-01-28 03:20:00,
2013-01-27 21:25:00,67.7,55.1,29.80,South,169,10.0,15.0,64,0.00,,---,0.00,VWS V14.01,2013-01-28 03:25:00,
2013-01-27 21:30:00,67.5,54.9,29.80,South,186,9.0,15.0,64,0.00,,---,0.00,VWS V14.01,2013-01-28 03:30:00,
2013-01-27 21:35:00,67.1,55.0,29.80,South,174,7.0,13.0,65,0.00,,---,0.00,VWS V14.01,2013-01-28 03:35:00,
2013-01-27 21:40:00,66.8,54.7,29.81,South,169,9.0,13.0,65,0.00,,---,0.00,VWS V14.01,2013-01-28 03:40:00,
2013-01-27 21:45:00,66.6,54.9,29.81,SSW,198,8.0,13.0,66,0.00,,---,0.00,VWS V14.01,2013-01-28 03:45:00,
2013-01-27 21:51:00,66.2,54.5,29.80,SSE,150,7.0,13.0,66,0.00,,---,0.00,VWS V14.01,2013-01-28 03:51:00,
2013-01-27 21:56:00,66.0,54.7,29.81,South,184,9.0,13.0,67,0.00,,---,0.00,VWS V14.01,2013-01-28 03:56:00,
2013-01-27 22:01:00,65.8,54.5,29.81,South,176,10.0,11.0,67,0.00,,---,0.00,VWS V14.01,2013-01-28 04:01:00,
2013-01-27 22:06:00,65.5,54.7,29.80,SSE,149,9.0,14.0,68,0.00,,---,0.00,VWS V14.01,2013-01-28 04:06:00,
2013-01-27 22:11:00,65.2,54.4,29.81,SSE,160,9.0,14.0,68,0.00,,---,0.00,VWS V14.01,2013-01-28 04:11:00,
2013-01-27 22:16:00,65.0,54.6,29.81,South,174,8.0,14.0,69,0.00,,---,0.00,VWS V14.01,2013-01-28 04:16:00,
2013-01-27 22:21:00,64.8,54.4,29.81,SSE,165,5.0,14.0,69,0.00,,---,0.00,VWS V14.01,2013-01-28 04:21:00,
2013-01-27 22:27:00,64.7,54.3,29.81,SSE,160,7.0,14.0,69,0.00,,---,0.00,VWS V14.01,2013-01-28 04:27:00,
2013-01-27 22:32:00,64.7,54.3,29.81,SSE,149,9.0,10.0,69,0.00,,---,0.00,VWS V14.01,2013-01-28 04:32:00,
2013-01-27 22:37:00,64.7,54.3,29.81,SSE,156,5.0,12.0,69,0.00,,---,0.00,VWS V14.01,2013-01-28 04:37:00,
2013-01-27 22:42:00,64.4,54.0,29.81,South,179,5.0,12.0,69,0.00,,---,0.00,VWS V14.01,2013-01-28 04:42:00,
2013-01-27 22:47:00,64.0,54.0,29.81,SSE,150,6.0,12.0,70,0.00,,---,0.00,VWS V14.01,2013-01-28 04:47:00,
2013-01-27 22:52:00,63.7,53.7,29.81,SSE,159,7.0,12.0,70,0.00,,---,0.00,VWS V14.01,2013-01-28 04:52:00,
2013-01-27 22:58:00,63.6,53.7,29.81,SSE,158,7.0,12.0,70,0.00,,---,0.00,VWS V14.01,2013-01-28 04:58:00,
2013-01-27 23:00:00,63.6,53.7,29.81,SSE,162,7.0,12.0,70,0.00,,---,0.00,VWS V14.01,2013-01-28 05:00:00,
2013-01-27 23:03:00,63.4,53.8,29.81,South,172,7.0,9.0,71,0.00,,---,0.00,VWS V14.01,2013-01-28 05:03:00,
2013-01-27 23:08:00,63.2,53.7,29.81,SSE,155,8.0,12.0,71,0.00,,---,0.00,VWS V14.01,2013-01-28 05:08:00,
2013-01-27 23:13:00,63.0,53.5,29.81,SSE,160,9.0,12.0,71,0.00,,---,0.00,VWS V14.01,2013-01-28 05:13:00,
2013-01-27 23:19:00,62.7,53.5,29.81,SSE,165,7.0,12.0,72,0.00,,---,0.00,VWS V14.01,2013-01-28 05:19:00,
2013-01-27 23:24:00,62.6,53.5,29.81,South,191,7.0,12.0,72,0.00,,---,0.00,VWS V14.01,2013-01-28 05:24:00,
2013-01-27 23:29:00,62.6,53.5,29.82,South,190,5.0,12.0,72,0.00,,---,0.00,VWS V14.01,2013-01-28 05:29:00,
2013-01-27 23:34:00,62.5,53.4,29.82,SSE,165,4.0,8.0,72,0.00,,---,0.00,VWS V14.01,2013-01-28 05:34:00,
2013-01-27 23:39:00,62.1,53.0,29.82,SE,139,6.0,11.0,72,0.00,,---,0.00,VWS V14.01,2013-01-28 05:39:00,
2013-01-27 23:44:00,61.5,53.2,29.82,SE,143,7.0,11.0,74,0.00,,---,0.00,VWS V14.01,2013-01-28 05:44:00,
2013-01-27 23:49:00,61.5,53.2,29.82,SE,135,9.0,12.0,74,0.00,,---,0.00,VWS V14.01,2013-01-28 05:49:00,
2013-01-27 23:55:00,61.3,53.3,29.82,SE,138,8.0,12.0,75,0.00,,---,0.00,VWS V14.01,2013-01-28 05:55:00,